Theta_e
332 332 332 331 329 329 329 329 330 330 331 332 331 329 329 330 329 330 330 330 331 331 330 329 329 330 330 331 332 333 331 330 330 330 330 329 329 330 329 329 328 327 326 327 327 327 327 327 327 327 327 327 328 328 327 326 326 326 326 326 326 326 326
331 331 330 327 326 327 328 328 330 330 330 331 330 329 329 328 328 329 330 330 331 332 330 329 329 330 331 331 331 331 330 329 329 329 330 329 329 330 329 329 328 327 327 327 327 327 327 327 327 327 327 327 327 328 327 327 327 326 326 326 325 325 325
330 331 330 328 328 329 329 328 329 330 330 330 331 331 330 328 328 328 329 330 331 331 330 328 329 331 331 331 330 330 329 329 329 329 330 330 329 330 329 329 328 328 328 327 327 327 326 327 327 327 326 326 327 327 327 328 327 326 326 326 325 324 324
330 330 329 328 328 329 329 328 328 329 330 331 331 330 329 330 330 330 330 330 330 330 329 328 329 330 330 330 330 329 329 329 330 330 330 329 329 329 329 329 329 328 328 327 327 327 327 327 327 327 326 326 326 326 327 327 326 326 326 325 325 324 324
330 329 327 326 326 327 328 328 328 329 330 331 331 330 329 330 331 330 330 330 329 329 328 327 328 329 330 331 330 329 329 330 330 330 329 329 329 329 329 329 329 328 328 328 327 327 327 327 327 327 327 326 326 326 326 326 326 326 326 325 324 324 324
329 327 326 325 326 326 327 328 328 329 331 331 331 330 329 330 330 330 330 330 329 328 328 327 328 329 330 331 330 328 328 330 331 330 329 329 329 329 329 329 329 328 328 328 327 327 326 327 327 327 327 326 326 326 325 326 326 326 326 325 324 324 324
329 327 326 326 327 327 327 328 329 330 330 331 332 331 330 329 330 330 330 330 329 328 329 329 329 329 329 329 329 328 329 330 330 329 328 328 328 329 330 329 329 328 328 328 328 326 326 327 327 327 327 326 326 325 325 326 326 326 326 325 324 324 324
328 327 327 328 328 329 329 328 329 330 331 331 332 331 331 330 330 331 331 330 329 328 329 329 329 328 328 329 329 329 329 330 330 329 329 329 329 329 329 329 329 328 328 328 327 326 326 327 327 327 327 326 326 325 325 326 326 326 326 325 324 324 324
328 328 328 329 329 328 328 328 328 330 331 332 332 331 331 331 330 330 331 330 329 329 328 329 329 328 328 329 329 329 329 330 330 329 329 329 329 329 329 329 329 328 327 327 327 327 327 327 327 327 327 327 326 326 325 326 326 326 325 325 324 325 324
329 329 329 329 328 327 327 327 327 328 330 331 332 331 330 330 330 329 330 330 329 329 328 328 328 327 328 329 329 330 330 330 330 330 329 329 329 329 329 328 328 328 327 327 327 327 327 327 327 327 327 327 327 326 326 326 326 325 324 324 324 324 322
329 329 328 328 327 325 325 325 326 328 331 331 332 331 329 329 330 330 330 330 330 329 328 327 327 327 326 326 329 330 330 330 329 329 329 329 329 328 328 328 328 327 328 328 327 327 327 327 327 326 326 326 326 326 326 325 326 325 324 324 324 322 320
329 328 327 326 326 325 325 325 326 328 331 332 332 331 329 328 329 330 331 330 330 330 328 326 326 327 325 325 327 329 329 329 329 329 329 329 329 328 327 328 328 327 328 327 327 327 327 327 326 326 326 325 325 326 326 326 326 324 324 324 322 319 319
327 327 326 325 326 327 327 326 326 327 330 331 332 331 329 328 329 329 330 330 330 330 329 327 326 327 326 324 325 327 329 329 329 329 329 328 328 328 327 327 327 327 327 328 327 327 327 327 326 326 326 325 325 325 325 325 326 324 323 322 320 318 318
326 326 325 325 326 328 328 329 328 329 330 331 332 331 328 328 329 328 328 329 330 329 329 327 326 326 326 325 325 327 328 328 328 329 328 327 328 327 327 327 327 327 327 328 327 327 326 326 326 326 326 325 325 325 325 325 326 325 323 321 318 317 317
327 326 324 324 326 326 327 329 329 330 331 331 331 330 328 328 328 328 329 329 329 329 328 328 326 325 325 325 326 327 328 328 328 329 328 327 327 327 327 326 326 327 327 327 327 327 326 325 326 326 325 325 325 324 324 325 325 324 322 319 318 317 316
328 327 323 322 323 324 325 326 327 328 329 330 331 329 328 328 328 328 329 329 328 328 328 327 326 326 327 327 326 326 327 328 328 328 327 327 327 326 326 326 326 326 326 326 326 326 326 325 325 325 325 325 325 324 324 323 324 323 321 319 318 317 317
328 328 325 322 321 322 324 325 327 328 328 329 330 328 328 328 328 328 328 328 327 327 327 328 327 328 328 328 327 326 327 327 327 327 327 326 326 326 326 325 326 326 325 325 326 325 325 325 325 325 326 325 324 323 323 322 322 323 322 321 320 319 318
327 328 328 326 323 323 324 326 326 327 328 329 330 328 327 328 328 328 328 327 326 326 327 329 329 328 328 328 328 327 327 327 327 327 326 326 325 325 325 325 325 325 325 326 325 325 325 325 325 326 326 325 324 323 323 322 322 322 322 322 321 320 319
325 327 328 328 327 326 327 327 326 326 327 329 329 328 327 328 329 329 329 326 325 326 328 329 329 329 328 327 328 328 328 327 327 327 327 325 324 324 324 325 325 325 325 325 325 325 325 325 325 326 325 325 325 323 322 323 323 322 322 322 321 320 319
325 326 327 328 328 329 329 329 328 328 328 329 329 327 326 327 328 329 328 327 326 327 327 327 327 326 325 325 327 328 327 327 328 327 326 325 324 324 324 324 324 324 324 324 324 324 324 325 326 325 324 325 324 323 322 322 322 322 322 321 320 320 318
323 325 325 326 327 328 329 329 329 329 329 329 329 327 326 327 327 327 328 328 327 326 326 326 325 323 322 322 324 326 326 326 327 326 325 325 325 324 324 324 324 324 324 324 324 324 325 325 325 324 323 324 323 322 322 322 322 322 321 321 321 320 318
322 323 324 325 326 327 328 328 328 328 329 330 328 326 327 328 326 326 327 327 326 326 326 326 325 323 320 320 323 325 324 324 326 325 324 325 325 324 323 324 324 323 324 324 324 324 324 324 323 322 321 321 321 321 322 322 322 322 321 321 321 320 318
321 322 324 324 325 326 327 327 328 327 328 330 328 326 327 328 326 326 327 327 326 326 327 326 324 322 321 321 322 323 322 323 325 324 324 325 324 323 323 324 324 324 324 325 324 323 322 321 320 320 320 320 320 320 321 321 321 321 321 320 320 319 318
322 322 323 324 325 325 326 326 326 326 327 328 328 328 328 327 325 326 327 326 326 327 325 324 323 322 322 322 322 322 323 324 325 324 324 325 324 323 324 324 324 324 324 324 323 321 320 320 319 319 319 319 319 320 320 320 320 320 320 319 319 318 318
322 322 323 323 324 325 325 325 325 325 326 327 328 329 328 327 326 326 327 327 326 325 323 323 323 323 323 323 323 323 324 324 324 324 325 325 324 324 323 324 324 324 324 322 320 319 319 319 318 318 318 318 318 319 319 319 319 319 319 318 318 318 318
321 321 322 323 324 324 325 325 325 325 326 326 327 328 328 327 326 326 326 326 325 323 323 322 323 323 323 323 323 323 323 323 323 324 326 326 325 324 324 323 323 323 321 320 319 319 319 318 318 318 319 319 319 319 319 319 319 319 319 319 319 319 318
318 319 319 321 322 324 324 324 325 325 325 326 327 328 328 327 326 326 325 325 324 323 323 323 323 323 322 322 322 323 323 323 322 324 325 326 325 324 323 323 322 321 320 319 319 319 319 319 319 319 320 320 320 320 319 319 319 319 318 318 318 318 318
318 318 318 318 320 322 323 324 324 324 325 325 326 327 326 326 326 325 323 323 324 324 323 322 322 322 321 321 322 323 324 323 323 324 325 325 323 322 322 322 321 320 320 320 320 320 320 320 320 320 320 320 319 318 318 317 316 316 316 316 317 317 316
319 318 318 318 318 319 321 323 323 323 324 324 325 325 326 325 324 323 323 323 324 324 322 322 322 321 321 321 322 323 324 324 325 325 325 323 322 322 321 321 320 320 320 320 320 320 320 320 319 319 318 316 315 315 315 315 314 314 315 315 315 315 314
319 318 318 318 317 318 319 321 322 322 322 323 324 324 324 324 322 322 323 324 323 323 322 322 321 320 320 321 322 322 324 325 325 325 323 322 322 322 321 320 320 320 319 317 318 319 318 318 317 315 314 313 313 313 314 314 314 314 314 314 315 314 313
319 319 318 317 317 317 318 319 320 320 320 323 324 323 323 323 322 322 323 323 322 322 321 321 321 321 321 321 321 321 323 324 324 324 323 322 320 320 320 320 320 319 318 316 317 318 317 316 315 313 312 312 313 313 313 313 313 313 313 313 313 312 312
317 318 317 316 316 317 316 317 317 317 318 321 323 322 321 322 322 322 322 322 322 322 321 320 321 321 320 321 321 321 322 323 324 324 322 320 318 318 319 320 319 318 317 317 317 317 316 314 313 312 312 313 313 313 313 312 312 312 311 311 311 310 310
315 316 316 316 316 315 315 315 315 316 317 320 321 320 320 320 320 321 322 321 321 320 320 320 320 320 320 320 320 320 321 322 322 322 320 318 317 318 318 318 318 317 318 318 318 316 314 313 313 313 313 314 314 314 313 312 311 311 310 310 309 308 307
313 314 314 315 315 314 314 314 315 315 316 318 319 319 318 319 319 319 319 319 319 319 318 319 319 319 320 320 320 320 321 321 320 320 319 318 318 318 318 318 318 318 318 318 317 315 314 314 314 314 315 315 314 314 313 312 311 310 308 307 306 305 304
313 313 313 313 314 314 314 314 315 315 315 316 317 317 317 318 319 319 318 319 320 319 318 319 320 320 320 320 319 320 319 318 317 317 316 316 316 317 317 318 318 318 317 316 316 315 314 315 315 315 315 314 313 312 311 309 308 307 305 304 303 303 302
313 313 313 313 313 313 313 313 314 315 315 315 315 315 316 317 317 318 318 318 318 318 317 318 319 318 318 318 317 316 316 315 315 315 314 314 314 315 316 316 316 316 316 315 315 315 315 315 315 314 313 311 310 308 307 306 305 304 303 302 301 300 300
311 312 312 312 312 312 312 312 312 313 313 314 314 314 315 315 316 316 317 317 317 316 316 317 317 316 316 316 315 315 315 314 314 313 313 314 314 314 315 315 315 315 315 315 315 314 314 313 312 310 308 307 306 305 304 304 303 302 301 300 299 298 298
Wind_Speed
9 10 10 10 12 13 11 11 13 13 15 17 16 15 15 15 17 19 19 20 19 19 20 20 20 20 20 20 19 19 16 14 15 15 14 15 17 19 18 16 12 8 6 5 6 7 7 8 11 12 12 11 10 8 8 9 8 8 7 7 6 6 6
11 11 12 12 14 14 13 12 13 14 15 17 16 15 15 16 18 20 20 19 18 19 21 20 20 21 21 20 19 18 16 15 15 15 15 15 16 17 17 15 14 12 9 6 6 7 7 7 8 10 11 11 10 9 9 9 9 9 8 7 8 7 7
12 14 14 14 15 16 15 14 14 14 15 16 15 13 14 16 18 19 20 19 18 20 22 21 20 21 21 19 18 18 16 15 16 15 15 14 14 15 15 15 15 13 11 8 6 6 7 7 6 8 10 10 9 10 10 9 9 9 8 8 8 8 6
12 14 17 18 18 17 17 16 16 16 16 15 15 12 12 15 17 18 19 19 19 21 22 22 21 20 19 19 18 19 18 17 17 16 16 15 14 14 14 14 14 12 10 8 5 3 5 7 6 6 8 8 8 9 10 10 9 9 9 9 9 8 6
12 13 16 19 21 21 19 19 18 17 16 15 15 13 13 15 17 18 19 20 21 22 22 23 21 20 19 19 19 20 19 19 18 17 17 17 16 15 15 14 13 11 10 8 5 4 4 6 6 6 6 8 8 8 10 11 10 10 10 10 9 8 7
14 14 15 18 21 21 19 19 20 18 17 15 14 12 12 16 17 18 20 21 22 22 22 22 21 19 19 20 20 20 20 19 19 18 18 17 17 16 15 14 13 11 11 9 7 6 6 6 8 7 6 7 8 9 11 11 11 11 11 11 9 8 7
17 18 18 19 20 19 18 18 18 17 17 15 14 12 12 15 18 19 20 21 21 21 21 21 21 20 19 20 20 20 19 19 18 19 18 17 16 16 15 14 13 13 12 11 8 7 7 7 7 8 6 7 8 8 11 12 11 10 10 11 9 8 8
18 18 18 19 18 17 17 17 16 15 16 16 14 13 14 15 19 20 20 20 21 21 20 20 21 20 19 20 20 20 19 18 19 19 18 17 18 16 15 13 13 14 14 12 9 8 9 7 7 8 6 7 9 8 10 11 10 10 10 10 10 9 8
17 18 18 18 18 17 17 18 17 15 15 16 14 14 15 17 18 19 20 20 20 20 19 20 21 20 20 20 20 20 19 19 20 20 19 18 18 16 14 13 13 14 14 13 10 9 10 9 9 9 7 7 10 10 10 9 9 10 11 10 9 9 9
16 17 17 17 17 17 17 19 18 15 15 16 15 14 15 17 17 18 20 20 19 19 19 19 20 20 19 19 19 19 19 20 20 20 20 19 18 15 14 13 13 13 14 13 11 10 10 10 10 10 8 7 8 9 8 8 8 10 12 11 9 8 8
16 16 16 17 17 17 17 18 17 15 15 15 16 16 16 17 18 18 20 20 19 19 19 19 20 19 18 19 19 19 19 19 19 19 19 18 16 15 15 14 13 13 13 13 12 11 10 9 9 10 9 8 10 9 6 5 6 9 12 12 10 8 7
19 18 17 17 18 19 19 18 17 15 14 15 16 17 17 17 18 19 20 20 19 19 19 19 19 18 18 19 18 19 20 20 20 19 18 16 15 15 15 15 14 14 13 13 13 12 11 10 10 10 10 11 12 11 7 4 3 8 12 13 11 10 9
19 20 18 16 18 19 18 19 19 17 16 16 17 18 18 17 18 19 20 19 18 19 19 19 18 17 18 18 18 21 22 21 20 19 17 16 15 15 15 15 15 14 13 13 14 13 12 11 11 11 11 12 13 12 9 5 3 8 14 14 13 11 10
16 16 18 18 18 17 16 18 20 20 18 18 17 17 18 18 19 19 20 19 18 18 18 19 18 17 17 18 20 20 19 18 18 17 16 16 16 15 15 15 15 14 13 13 14 14 12 11 12 12 12 13 14 13 10 6 4 10 15 15 13 12 10
14 13 16 19 18 17 15 17 20 20 19 18 17 17 18 18 19 19 20 19 18 17 19 19 19 19 18 19 20 19 17 17 17 16 16 16 15 16 16 16 16 15 14 14 15 14 13 11 12 12 12 14 15 14 12 8 7 13 16 15 13 11 9
16 15 15 16 17 17 18 19 20 20 19 18 18 18 19 20 20 20 20 20 18 18 19 20 21 20 20 20 19 18 17 17 16 15 15 15 15 15 15 16 16 16 16 15 15 14 13 12 12 13 13 14 16 15 13 11 10 13 15 13 11 9 8
17 18 18 18 18 19 20 20 21 21 20 19 19 19 21 21 21 21 22 20 18 18 19 21 22 21 20 19 18 17 17 16 15 15 14 14 14 14 14 15 16 16 16 15 15 14 13 13 14 13 13 15 16 16 16 15 13 13 12 10 9 8 7
16 17 19 21 22 23 23 22 22 22 22 20 21 21 22 23 22 22 23 20 18 18 20 21 22 20 18 16 16 16 16 15 14 14 14 13 13 13 14 14 15 16 15 15 14 13 13 14 14 14 14 15 16 17 17 16 14 13 11 9 8 8 8
16 17 19 21 23 24 23 23 23 23 23 22 22 23 24 23 23 23 23 20 19 19 20 21 20 19 17 16 16 15 14 14 14 14 14 13 13 13 14 14 15 15 15 14 14 13 13 14 15 15 15 15 15 17 18 16 13 12 10 8 8 8 8
14 18 19 21 22 24 24 23 22 22 24 23 23 25 26 24 23 23 21 20 19 20 19 19 18 17 17 17 17 16 14 14 15 15 14 14 14 14 14 15 14 14 14 14 14 14 14 15 16 15 15 14 15 17 17 15 13 11 10 8 7 8 8
13 16 18 19 21 24 25 23 20 20 23 25 26 26 26 24 23 23 21 20 21 20 18 17 16 16 17 17 17 17 16 15 15 16 15 15 14 14 14 14 14 14 14 14 15 14 14 16 16 16 15 14 13 15 15 13 12 11 9 8 7 7 8
14 15 17 18 19 22 23 22 19 19 22 26 27 26 25 24 23 23 22 23 22 20 17 16 15 15 16 17 18 17 16 16 16 16 16 16 15 14 14 14 14 15 15 15 16 16 16 16 16 15 14 13 12 12 11 10 10 9 8 7 7 7 7
14 15 16 17 18 19 21 21 20 20 21 25 27 27 25 24 23 23 24 25 22 19 17 15 14 14 15 17 18 18 17 17 17 16 16 16 16 15 15 15 15 16 16 16 17 17 18 17 16 15 13 12 11 10 10 9 9 8 8 7 7 7 7
13 13 14 16 17 18 19 20 20 21 21 22 27 28 26 25 24 24 26 25 21 18 17 16 15 15 16 17 17 17 17 18 18 16 15 16 16 15 15 15 15 16 17 19 19 19 18 16 14 14 13 13 12 11 9 9 8 8 7 6 6 6 6
14 12 11 12 13 14 16 17 18 19 19 20 25 26 25 24 24 25 25 23 19 17 17 17 16 16 16 17 17 17 17 18 17 16 16 17 15 15 17 17 17 18 19 20 20 18 17 15 14 13 13 13 12 11 9 8 7 6 6 5 5 5 4
19 15 11 10 10 10 11 14 16 17 17 19 23 25 25 23 23 24 24 20 18 18 18 18 18 17 16 16 16 16 16 17 17 16 18 18 16 17 18 19 20 21 20 19 18 18 18 17 15 14 13 13 12 11 9 8 7 6 6 5 4 4 4
21 21 20 16 12 11 11 13 15 16 16 18 22 24 25 25 24 23 21 18 18 19 20 19 18 17 16 15 14 14 15 17 17 18 18 18 17 18 19 20 22 23 21 18 18 19 18 17 16 14 13 12 11 10 9 7 6 4 4 4 4 4 4
21 22 24 24 20 16 14 14 15 16 17 19 23 25 27 28 26 21 18 18 19 21 21 20 17 16 15 14 13 13 15 17 18 18 18 18 18 19 20 21 22 22 22 22 20 18 16 16 15 14 13 12 10 9 7 6 4 2 1 2 3 4 4
19 20 22 25 24 19 15 14 15 17 19 22 24 27 29 27 23 21 20 19 20 22 21 19 17 15 14 13 12 12 14 17 18 18 18 19 20 21 21 21 21 21 21 21 19 15 14 14 13 13 13 12 10 9 7 5 3 0 2 3 5 5 5
16 17 18 21 23 20 13 12 14 15 19 23 24 25 27 25 22 23 22 20 20 21 20 19 17 15 14 13 11 10 11 15 18 19 20 21 23 23 23 21 20 20 18 16 15 14 12 12 12 12 11 10 8 6 4 2 1 3 4 5 6 5 4
14 14 15 17 20 20 14 7 9 12 14 20 22 21 22 24 23 23 22 20 19 19 19 18 18 16 14 12 10 9 10 14 18 20 22 25 25 24 22 19 16 15 15 15 16 15 13 11 11 9 7 5 3 2 1 1 2 3 4 5 6 5 6
17 13 12 14 17 18 18 14 6 4 8 13 15 15 16 20 21 21 20 20 19 19 19 18 17 15 14 11 10 10 12 14 18 22 24 25 22 19 18 17 16 14 14 15 15 14 12 10 7 5 3 3 3 2 2 2 2 3 4 5 5 5 5
22 15 12 13 16 17 19 19 13 5 4 4 6 8 11 15 18 19 20 21 21 19 18 17 14 12 12 11 9 9 11 14 17 21 23 21 19 18 18 19 18 16 14 14 13 11 9 6 3 3 3 3 4 3 3 2 2 3 4 3 2 2 1
26 22 17 14 14 17 18 17 16 13 9 3 6 9 9 12 14 16 18 20 20 19 17 16 14 12 12 11 8 7 9 12 14 18 20 20 20 21 21 20 18 16 14 12 10 7 4 3 3 3 3 3 3 3 2 1 1 2 2 2 2 2 1
23 23 22 19 16 17 18 16 14 13 11 9 11 12 11 12 13 14 15 15 15 16 17 17 15 14 13 11 8 6 6 8 10 13 16 18 18 18 18 16 15 14 12 9 8 6 5 5 4 3 3 3 3 3 3 3 4 4 3 3 3 2 2
16 17 19 19 18 19 19 18 16 14 12 12 12 12 12 13 13 14 15 14 12 13 15 14 14 14 14 13 11 9 8 9 10 10 11 12 12 11 11 10 10 10 9 8 8 7 6 5 4 4 4 4 4 5 4 4 4 4 3 3 2 2 2
14 13 12 13 14 15 16 17 17 17 16 15 13 12 13 14 15 15 16 16 16 16 17 17 16 14 13 12 10 7 7 7 8 8 8 8 8 8 8 9 9 9 9 9 9 8 7 6 5 5 5 6 5 5 4 3 2 2 2 2 2 2 2
Wind_Direction
258 244 243 244 252 262 269 270 269 267 265 266 265 264 262 250 243 242 237 231 226 222 222 224 223 220 219 219 219 219 217 216 218 216 221 225 217 213 213 211 210 214 208 189 184 184 184 197 207 208 209 209 211 210 208 212 213 214 213 209 210 215 229
264 256 248 237 236 247 259 265 267 266 266 267 264 260 252 239 236 238 232 228 226 222 222 224 222 221 221 220 220 218 216 219 221 214 217 225 221 218 218 212 208 212 213 198 188 189 182 187 202 206 207 206 204 203 206 211 211 210 210 208 211 217 225
286 275 267 256 249 252 258 262 265 266 268 269 266 262 253 239 231 229 224 222 221 218 219 221 222 223 222 222 223 220 217 221 221 211 210 218 220 221 222 217 212 213 214 208 204 203 197 196 194 198 202 200 197 199 198 202 205 203 205 210 214 217 218
292 282 276 271 265 263 264 265 266 267 272 272 266 263 256 241 229 222 221 219 217 215 213 216 222 224 222 221 221 220 219 220 219 211 205 208 213 217 217 217 218 221 221 217 215 216 216 216 198 184 191 192 195 197 190 191 198 201 205 211 216 215 205
289 281 277 276 272 269 268 271 272 269 273 273 268 263 251 236 223 216 216 216 214 213 210 212 219 224 224 221 220 220 219 218 216 210 205 204 206 206 205 210 217 221 220 213 209 206 208 214 199 179 180 184 188 191 188 188 194 201 209 213 214 211 198
280 275 275 276 274 270 269 272 274 272 271 270 269 261 243 233 226 217 214 214 213 211 211 213 216 221 223 220 219 221 220 219 216 209 205 204 204 202 200 205 209 211 210 205 204 200 191 197 194 181 172 178 186 186 184 188 195 201 210 215 213 208 200
278 276 276 275 272 267 267 270 270 269 269 268 266 257 242 234 230 223 217 214 213 212 214 217 215 216 219 218 219 220 219 220 215 208 203 202 203 202 200 203 205 206 205 200 200 201 194 192 197 191 174 168 182 189 184 190 200 202 210 216 210 204 204
279 276 274 271 266 260 260 265 264 263 266 267 263 256 246 237 231 225 219 216 217 218 219 218 216 214 216 218 220 221 219 216 210 205 201 200 201 201 201 204 207 206 205 198 195 201 198 191 198 205 192 170 176 190 191 194 201 201 205 212 207 203 203
273 274 275 270 262 256 257 260 261 261 262 262 259 254 248 241 234 226 221 219 220 223 223 220 217 216 218 220 221 221 218 212 207 203 200 200 202 201 199 203 209 208 204 196 191 199 200 193 194 200 199 186 181 185 190 197 205 206 205 205 202 204 204
267 269 273 270 263 259 257 258 260 262 261 260 257 255 248 241 233 225 222 222 222 223 223 221 220 221 221 223 224 223 220 212 205 202 202 202 200 199 198 201 205 203 196 191 190 195 197 194 197 197 195 194 186 179 181 194 205 207 206 200 193 203 211
265 265 264 260 259 260 258 258 261 264 266 262 256 255 251 239 231 225 221 222 223 222 222 224 225 224 223 225 224 222 221 214 206 203 204 202 197 196 199 199 198 196 194 192 189 193 193 192 197 199 195 189 184 183 181 182 196 200 199 194 187 190 194
257 256 256 255 257 260 259 258 259 262 266 262 254 254 254 241 230 225 222 221 222 220 221 224 224 221 221 223 222 220 219 212 205 203 201 199 197 200 202 201 198 198 197 192 190 193 194 192 193 196 196 188 181 186 191 180 185 191 187 183 180 175 170
263 257 255 259 263 266 267 265 263 263 264 261 253 251 252 240 226 221 219 219 220 219 220 222 220 217 218 219 219 219 217 207 201 199 198 199 202 204 204 204 204 203 195 187 189 193 193 191 192 193 195 189 179 176 182 185 185 184 179 174 173 171 167
274 264 254 255 262 266 268 270 267 263 260 256 249 246 246 234 220 216 217 218 218 218 219 218 216 214 213 214 216 218 216 209 203 201 201 204 206 205 204 204 206 205 195 188 190 193 194 194 194 195 194 188 178 169 170 181 183 174 173 171 171 170 166
267 255 247 250 257 260 260 262 264 263 260 254 245 241 237 225 215 215 217 217 216 216 216 214 212 212 211 212 214 215 213 212 211 207 204 204 205 204 204 204 205 202 198 195 194 196 200 200 196 197 195 185 175 167 165 170 169 167 168 167 167 164 159
260 248 244 243 247 256 259 259 261 262 259 251 241 234 228 219 213 214 215 214 213 213 212 212 212 211 211 210 210 210 211 211 210 208 206 203 202 203 203 204 204 201 200 200 198 199 202 199 195 196 195 183 172 165 161 158 156 163 167 167 167 165 160
261 249 245 238 235 244 252 256 259 260 256 246 237 228 221 217 214 212 210 208 210 211 208 209 211 209 208 208 206 206 210 210 205 203 204 203 201 200 201 203 204 202 201 200 200 201 197 192 190 190 188 182 174 167 162 157 153 158 164 168 172 175 175
268 256 247 242 239 239 241 246 252 256 252 243 234 224 216 214 213 210 207 206 209 211 206 205 207 207 206 207 205 203 204 206 202 199 199 200 199 198 198 202 204 202 200 199 197 195 190 187 186 183 180 180 178 172 167 163 160 160 162 165 172 176 180
274 266 255 249 246 243 240 239 242 248 247 239 229 220 213 212 211 207 203 203 208 209 204 203 204 205 204 204 205 203 201 201 200 198 198 196 194 195 195 198 202 202 199 197 192 186 182 182 182 180 176 178 181 178 173 170 169 167 163 161 165 171 177
280 272 264 258 254 251 248 243 240 241 238 231 224 216 211 210 211 207 202 201 204 206 202 201 201 203 204 203 203 202 201 199 198 197 197 194 192 193 194 197 201 199 196 191 185 180 179 178 177 177 175 176 180 180 179 177 175 172 168 165 167 173 176
299 281 274 269 261 255 251 248 249 246 234 226 220 214 211 210 207 205 201 199 200 200 197 198 201 203 203 202 202 201 200 200 199 198 195 193 192 191 193 195 196 194 191 186 181 179 177 175 172 170 169 168 170 173 178 180 177 175 175 177 183 186 186
307 289 280 275 267 260 253 249 256 258 240 224 217 213 211 208 202 199 199 199 197 193 194 201 206 207 204 201 200 200 201 200 199 199 195 192 191 191 191 191 189 187 186 183 179 174 169 166 166 166 166 166 167 169 173 176 176 177 180 184 194 197 196
304 288 278 272 268 266 261 254 254 259 248 226 215 212 209 202 198 198 198 197 192 189 196 204 206 205 204 201 198 199 200 195 194 197 196 193 192 191 189 188 186 185 183 178 173 168 164 163 165 167 169 170 171 171 174 177 178 179 179 186 197 201 203
320 298 283 273 266 265 266 262 260 267 262 233 214 210 207 200 199 202 198 192 186 188 196 200 199 199 198 195 195 194 190 187 190 194 195 195 194 190 187 186 183 181 176 173 170 166 165 166 167 170 172 173 173 172 176 182 182 179 181 190 199 199 201
353 330 302 283 273 268 271 271 269 270 262 237 218 210 205 202 205 204 195 187 185 190 194 192 190 189 187 185 185 185 185 188 191 192 193 195 194 190 186 183 178 174 172 171 170 167 165 162 160 162 165 165 164 162 164 173 180 183 191 200 201 192 188
16 6 344 313 291 284 282 279 274 266 254 236 222 211 203 204 208 200 188 183 188 190 186 181 179 179 178 179 182 187 193 194 194 195 194 192 191 189 187 181 174 169 169 169 167 164 162 158 154 154 156 156 156 158 164 174 181 186 192 196 199 196 199
24 21 14 358 333 311 300 292 282 271 256 236 220 208 201 201 201 194 186 185 187 183 176 172 173 174 175 180 187 194 198 195 195 197 194 187 187 187 183 179 172 167 164 163 163 163 162 158 156 157 158 159 161 164 167 170 172 177 184 193 208 219 226
17 19 20 14 1 337 314 296 278 264 249 232 215 204 199 195 192 188 186 186 183 176 170 168 170 173 178 185 189 192 194 193 192 192 186 180 181 180 175 172 169 166 164 162 162 165 164 161 161 160 158 158 156 152 149 142 135 141 177 212 227 233 236
9 13 20 22 15 353 318 286 266 252 236 219 204 196 194 190 184 180 182 183 179 173 166 164 171 178 183 187 185 184 192 193 188 184 179 175 173 171 169 167 168 168 166 159 153 156 160 160 158 154 149 145 140 135 133 129 119 118 280 268 254 246 246
4 11 21 27 26 11 330 273 248 240 224 207 198 194 189 182 177 176 175 176 177 172 162 162 174 183 186 187 183 183 194 194 185 178 175 173 173 170 167 166 168 168 163 152 145 147 152 153 149 144 141 138 135 133 135 137 279 292 288 281 271 267 277
4 9 22 29 32 27 10 312 251 235 215 201 199 193 181 175 176 174 169 169 174 171 163 165 177 183 184 185 184 191 202 195 182 176 176 176 174 169 162 161 166 167 159 152 149 147 146 147 147 146 145 147 152 164 177 221 281 294 295 288 283 288 300
12 6 22 36 40 40 36 26 357 239 193 186 191 183 173 176 177 170 166 170 174 170 165 167 174 175 173 179 188 199 208 200 184 179 180 178 170 162 159 159 161 163 160 155 153 151 149 153 158 165 189 223 241 240 231 238 271 295 298 291 284 285 291
31 23 31 46 52 54 51 42 35 46 112 150 176 163 164 177 174 167 168 171 169 165 163 165 171 167 165 175 189 201 217 216 197 182 179 176 170 165 164 161 158 160 164 164 162 161 160 168 191 223 240 259 265 254 244 250 281 296 292 281 260 250 246
45 43 42 45 55 62 63 57 46 42 49 96 159 153 158 173 171 165 164 160 155 157 161 168 174 169 165 172 182 203 222 219 200 183 176 175 174 170 165 161 160 162 164 166 165 167 187 218 250 264 270 275 267 251 238 224 218 232 223 180 158 152 147
56 56 52 49 55 64 70 71 63 56 66 98 123 129 137 155 163 160 154 149 152 163 170 174 173 164 158 158 156 169 193 182 171 172 172 168 167 163 158 157 161 160 160 169 180 198 224 234 242 252 249 233 215 195 179 177 176 174 168 154 152 170 198
60 65 63 61 61 63 67 71 73 78 85 94 104 107 108 122 136 137 132 129 136 147 150 150 146 139 136 138 138 139 150 154 153 162 168 162 158 157 156 158 166 169 176 194 208 211 211 212 217 216 202 187 174 164 163 169 169 169 173 180 198 212 209
51 60 68 71 69 67 65 63 66 70 73 79 94 101 97 100 108 110 111 117 122 125 128 130 133 134 134 140 149 149 151 157 160 170 182 183 183 189 184 177 184 192 196 200 200 192 186 188 191 183 167 157 153 153 159 173 183 197 213 216 211 199 176